Find Starlink 37050

NORAD ID: 68228 Int'l Des: 2026-053 Owner: SPXS Country: US Constellation: starlink operational
LEOCIRCULARRETROGRADE

リアルタイム位置

3D地球を読み込み中...

Starlink 37050について

説明を読み込み中...

次回通過

Passes for default location (London). Set your location on the main map for personalized predictions.

高度履歴

Loading altitude history...

軌道要素

1 68228U 26053X 26122.13554069 .00026487 00000-0 81995-3 0 9990
2 68228 97.2859 357.9869 0001974 85.7090 274.4378 15.33441446 8395
Epoch: May 2, 2026 • Age: 7 hours

現在のステータス

高度 471.8 km
速度 7.64 km/s
衛星直下点 46.22°N, 174.1°E
打ち上げ日 Mar 17, 2026
運用期間 0.1 years
タイプ internet

技術仕様

分類 Payload
質量 575.00 kg
乾燥質量 530.00 kg
総質量 575.00 kg
長さ 0.30 m
直径 4.10 m
スパン 29.00 m
形状 Box + pan
製造者 SPXS
バスタイプ Starlink V2MO
フェーズステータス In Orbit
所有者/国 SPXS/US

Most Searched